KB9ZI Weather Reports


Display with metric or nautical units.
time (UTC)temp
F
wind
direction
speed
MPH
gust
MPH
rain 1hr
in
rain 24hr
in
rain mn
in
humidity
%
barometer
mb
20260903222333 87 189 0.0 11.0 0.00 0.55 0.55 69 1007.8
20260903222225 87 179 0.0 11.0 0.00 0.55 0.55 69 1007.8
20260903222048 87 178 0.0 11.0 0.00 0.55 0.55 69 1007.8
20260903221931 87 172 0.0 11.0 0.00 0.55 0.55 69 1007.9
20260903221826 87 166 0.0 11.0 0.00 0.55 0.55 69 1007.9
20260903221535 87 171 0.0 11.0 0.00 0.55 0.55 68 1007.9
20260903221531 87 169 0.0 11.0 0.00 0.55 0.55 68 1007.9
20260903221330 87 186 0.0 11.0 0.00 0.55 0.55 68 1008.0
20260903221132 87 178 0.0 7.0 0.00 0.55 0.55 68 1008.0
20260903221030 87 178 0.0 7.0 0.00 0.55 0.55 68 1008.1
20260903220932 87 178 0.0 7.0 0.00 0.55 0.55 68 1008.1
20260903220815 88 180 0.0 7.0 0.00 0.55 0.55 67 1008.0
20260903220520 88 165 0.0 6.0 0.00 0.55 0.55 69 1008.1
20260903220515 88 166 0.0 6.0 0.00 0.55 0.55 69 1008.1
20260903220411 88 202 0.0 6.0 0.00 0.55 0.55 67 1008.0
20260903220111 88 193 0.0 6.0 0.00 0.55 0.55 68 1008.0
20260903220012 88 189 0.0 6.0 0.00 0.55 0.55 68 1008.0
20260903215912 88 172 0.0 5.0 0.00 0.55 0.55 68 1008.0
20260903215711 88 1 0.0 5.0 0.00 0.55 0.55 69 1008.0
20260903215614 88 216 0.0 9.0 0.00 0.55 0.55 68 1008.1
20260903215515 88 216 0.0 9.0 0.00 0.55 0.55 68 1008.1
20260903215356 87 245 0.0 9.0 0.00 0.55 0.55 68 1008.1
20260903215324 87 128 0.0 9.0 0.00 0.55 0.55 69 1008.1
20260903215319 88 176 0.0 9.0 0.00 0.55 0.55 68 1008.1
20260903214913 87 178 0.0 10.0 0.00 0.55 0.55 69 1008.2
20260903214712 87 169 0.0 10.0 0.00 0.55 0.55 68 1008.4
20260903214512 87 168 0.0 10.0 0.00 0.55 0.55 68 1008.4
20260903214311 87 228 0.0 11.0 0.00 0.55 0.55 68 1008.4
20260903214213 87 159 0.0 11.0 0.00 0.55 0.55 67 1008.2
20260903214011 87 140 0.0 11.0 0.00 0.55 0.55 68 1008.2
20260903213912 87 165 0.0 11.0 0.00 0.55 0.55 68 1008.3
20260903213810 88 37 0.0 11.0 0.00 0.55 0.55 67 1008.3
20260903213514 88 145 0.0 11.0 0.00 0.55 0.55 67 1008.4
20260903213311 88 0 0.0 6.0 0.00 0.55 0.55 67 1008.5
20260903213111 88 200 0.0 6.0 0.00 0.55 0.55 69 1008.5
20260903213012 88 55 0.0 6.0 0.00 0.55 0.55 69 1008.5
20260903212911 87 175 0.0 7.0 0.00 0.55 0.55 69 1008.5
20260903212814 87 175 0.0 7.0 0.00 0.55 0.55 70 1008.3
20260903212511 87 186 0.0 7.0 0.00 0.55 0.55 69 1008.5
20260903212413 87 165 0.0 7.0 0.00 0.55 0.55 69 1008.5
20260903212111 87 21 0.0 10.0 0.00 0.55 0.55 69 1008.4
20260903212013 87 179 0.0 10.0 0.00 0.55 0.55 68 1008.4
20260903211912 87 171 0.0 10.0 0.00 0.55 0.55 69 1008.4
20260903211711 86 155 0.0 10.0 0.00 0.55 0.55 69 1008.4
20260903211512 87 141 0.0 10.0 0.00 0.55 0.55 68 1008.5
20260903211313 87 144 0.0 10.0 0.00 0.55 0.55 68 1008.5
20260903211210 87 176 0.0 10.0 0.00 0.55 0.55 67 1008.4
20260903211004 87 182 0.0 10.0 0.00 0.55 0.55 67 1008.5
20260903210912 88 154 0.0 10.0 0.00 0.55 0.55 66 1008.4
20260903210711 88 162 0.0 7.0 0.00 0.55 0.55 66 1008.4
20260903210528 89 200 0.0 7.0 0.00 0.55 0.55 69 1008.3
20260903210503 89 157 0.0 7.0 0.00 0.55 0.55 69 1008.3
20260903210341 88 173 0.0 7.0 0.00 0.55 0.55 68 1008.3
20260903210312 88 118 0.0 7.0 0.00 0.55 0.55 68 1008.3
20260903210254 88 173 0.0 7.0 0.00 0.55 0.55 68 1008.4
20260903205911 88 161 0.0 7.0 0.00 0.55 0.55 69 1008.4
20260903205814 87 165 0.0 5.0 0.00 0.55 0.55 68 1008.4
20260903205508 87 183 0.0 5.0 0.00 0.55 0.55 70 1008.4
20260903205314 86 166 0.0 0.0 0.00 0.55 0.55 70 1008.7
20260903205306 87 148 0.0 3.0 0.00 0.55 0.55 69 1008.5
20260903205238 86 175 0.0 0.0 0.00 0.55 0.55 69 1008.6
20260903204902 86 161 0.0 0.0 0.00 0.55 0.55 70 1008.7
20260903204759 86 162 0.0 0.0 0.00 0.55 0.55 71 1008.7
20260903204511 86 186 0.0 2.0 0.00 0.55 0.55 72 1008.9
20260903204456 86 158 0.0 2.0 0.00 0.55 0.55 72 1008.9
20260903204400 85 144 0.0 2.0 0.00 0.55 0.55 71 1008.8
20260903204310 85 195 0.0 2.0 0.00 0.55 0.55 71 1008.9
20260903204239 85 192 0.0 2.0 0.00 0.55 0.55 71 1008.8
20260903203906 85 137 0.0 2.0 0.00 0.55 0.55 70 1008.8
20260903203652 85 180 0.0 0.0 0.00 0.55 0.55 71 1008.9
20260903203500 85 196 0.0 0.0 0.00 0.55 0.55 72 1008.8
20260903203108 0 0.0 0.0 0.00 0.55 0.55
20260903202839 0 0.0 0.0 0.00 0.55 0.55
20260903202743 0 0.0 0.0 0.00 0.55 0.55
20260903202739 0 0.0 0.0 0.00 0.55 0.55
20260903202549 0 0.0 0.0 0.00 0.55 0.55
20260903202516 0 0.0 0.0 0.00 0.55 0.55
20260903202507 0 0.0 0.0 0.00 0.55 0.55
20260903202008 0 0.0 0.0 0.00 0.55 0.55 1008.8
20260903201808 0 0.0 0.0 0.00 0.55 0.55 1008.8
20260903201713 0 0.0 0.0 0.00 0.55 0.55 1008.8
20260903201607 86 185 0.0 3.0 0.00 0.55 0.55 69 1008.8
20260903201449 86 185 0.0 5.0 0.00 0.55 0.55 69 1008.8
20260903201439 86 185 0.0 5.0 0.00 0.55 0.55 69 1008.8
20260903200931 86 185 0.0 5.0 0.00 0.55 0.55 69 1008.8
20260903200830 86 185 0.0 5.0 0.00 0.55 0.55 69 1008.8
20260903200702 86 185 0.0 5.0 0.00 0.55 0.55 69 1008.8
20260903200507 86 30 0.0 6.0 0.00 0.55 0.55 68 1008.9
20260903200454 87 32 0.0 6.0 0.00 0.55 0.55 69 1009.0
20260903200432 87 25 0.0 6.0 0.00 0.55 0.55 70 1008.9
20260903200113 87 178 0.0 6.0 0.00 0.55 0.55 69 1009.0
20260903195906 87 178 0.0 12.0 0.00 0.55 0.55 69 1009.1
20260903195810 87 35 0.0 12.0 0.00 0.55 0.55 69 1009.0
20260903195706 87 35 0.0 12.0 0.00 0.55 0.55 69 1009.0
20260903195505 88 182 0.0 12.0 0.00 0.55 0.55 68 1009.0
20260903195454 87 190 0.0 12.0 0.00 0.55 0.55 67 1009.0
20260903195429 87 97 0.0 12.0 0.00 0.55 0.55 68 1009.1
20260903195104 87 179 0.0 12.0 0.00 0.55 0.55 66 1009.0
20260903194906 88 166 0.0 6.0 0.00 0.55 0.55 69 1009.0
20260903194813 88 103 0.0 7.0 0.00 0.55 0.55 70 1009.0
20260903194708 88 103 0.0 7.0 0.00 0.55 0.55 70 1009.0
20260903194531 87 27 0.0 7.0 0.00 0.55 0.55 72 1009.4
20260903194504 87 175 0.0 7.0 0.00 0.55 0.55 69 1009.2
20260903194450 87 0 0.0 7.0 0.00 0.55 0.55 70 1009.4
20260903194104 87 164 0.0 7.0 0.00 0.55 0.55 68 1009.4
20260903193904 86 169 0.0 10.0 0.00 0.55 0.55 70 1009.5
20260903193707 86 196 0.0 10.0 0.00 0.55 0.55 70 1009.4
20260903193508 86 189 0.0 10.0 0.00 0.55 0.55 68 1009.4
20260903193407 87 142 0.0 10.0 0.00 0.55 0.55 67 1009.4
20260903193204 87 169 0.0 10.0 0.00 0.55 0.55 66 1009.4
20260903193104 87 224 0.0 10.0 0.00 0.55 0.55 68 1009.4
20260903193004 88 145 0.0 7.0 0.00 0.55 0.55 70 1009.4
20260903192704 88 176 0.0 7.0 0.00 0.55 0.55 68 1009.3
20260903192505 87 252 0.0 10.0 0.00 0.55 0.55 70 1009.3
20260903192307 87 166 0.0 10.0 0.00 0.55 0.55 68 1009.3
20260903192205 87 168 0.0 10.0 0.00 0.55 0.55 69 1009.3
20260903192104 87 173 0.0 10.0 0.00 0.55 0.55 71 1009.3
20260903192006 87 182 0.0 10.0 0.00 0.55 0.55 68 1009.2
20260903191705 87 193 0.0 10.0 0.00 0.55 0.55 70 1009.2
20260903191612 87 217 0.0 9.0 0.00 0.55 0.55 69 1009.2
20260903191306 87 168 0.0 9.0 0.00 0.55 0.55 71 1009.3
20260903191204 87 159 0.0 9.0 0.00 0.55 0.55 72 1009.3
20260903191104 87 186 0.0 9.0 0.00 0.55 0.55 69 1009.3
20260903190904 87 68 0.0 9.0 0.01 0.55 0.55 70 1009.3
20260903190707 87 180 0.0 6.0 0.01 0.55 0.55 69 1009.4
20260903190504 87 195 0.0 6.0 0.01 0.55 0.55 70 1009.3
20260903190454 87 210 0.0 6.0 0.03 0.55 0.55 70 1009.4
20260903190429 87 234 0.0 6.0 0.01 0.55 0.55 70 1009.3
20260903190119 87 162 0.0 0.0 0.07 0.50 0.55 71 1009.3
20260903190107 87 173 0.0 6.0 0.04 0.55 0.55 70 1009.4
20260903185704 86 65 0.0 0.0 0.11 0.50 0.55 71 1009.2
20260903185506 86 166 0.0 0.0 0.20 0.50 0.55 70 1009.2
20260903185307 86 206 0.0 0.0 0.20 0.50 0.55 70 1009.2
20260903185203 86 179 0.0 0.0 0.20 0.50 0.55 69 1009.3
20260903185104 86 166 0.0 0.0 0.22 0.50 0.55 70 1009.3
20260903184904 86 221 0.0 0.0 0.24 0.50 0.55 70 1009.4
20260903184717 85 190 0.0 0.0 0.26 0.50 0.55 72 1009.4
20260903184706 86 178 0.0 0.0 0.25 0.50 0.55 73 1009.4
20260903184305 85 200 0.0 0.0 0.30 0.50 0.55 72 1009.4
20260903184203 85 168 0.0 0.0 0.31 0.50 0.55 72 1009.4
20260903184106 85 186 0.0 0.0 0.31 0.50 0.55 73 1009.4
20260903183906 85 159 0.0 0.0 0.31 0.50 0.55 73 1009.4
20260903183704 85 176 0.0 0.0 0.31 0.50 0.55 75 1009.4
20260903183505 85 220 0.0 0.0 0.31 0.50 0.55 76 1009.4
20260903183314 84 157 0.0 0.0 0.31 0.50 0.55 76 1009.4
20260903183306 84 154 0.0 0.0 0.31 0.50 0.55 75 1009.5
20260903183206 84 203 0.0 0.0 0.31 0.50 0.55 76 1009.5
20260903182905 84 200 0.0 0.0 0.31 0.50 0.55 78 1009.5
20260903182704 83 154 0.0 0.0 0.31 0.50 0.55 81 1009.4
20260903182505 83 185 0.0 0.0 0.31 0.50 0.55 84 1009.4
20260903182307 82 196 0.0 0.0 0.31 0.50 0.55 82 1009.4
20260903182208 82 162 0.0 0.0 0.31 0.50 0.55 84 1009.5
20260903182203 82 159 0.0 0.0 0.31 0.50 0.55 84 1009.4
20260903181906 80 176 0.0 0.0 0.31 0.50 0.55 85 1009.5
20260903181704 80 176 0.0 0.0 0.31 0.50 0.55 87 1009.5
20260903181504 79 171 0.0 0.0 0.31 0.50 0.55 86 1009.5
20260903181404 78 169 0.0 0.0 0.31 0.50 0.55 87 1009.6
20260903181203 78 169 0.0 0.0 0.31 0.50 0.55 87 1009.7
20260903181104 77 147 0.0 0.0 0.31 0.50 0.55 87 1009.6
20260903180905 77 154 0.0 0.0 0.30 0.50 0.54 88 1009.8
20260903180809 77 164 0.0 0.0 0.30 0.50 0.54 88 1009.7
20260903180704 77 164 0.0 0.0 0.30 0.50 0.54 88 1009.7
20260903180504 77 193 0.0 0.0 0.30 0.50 0.54 88 1009.9
20260903180308 78 196 0.0 0.0 0.30 0.50 0.52 88 1009.8
20260903180203 78 25 0.0 0.0 0.28 0.50 0.51 88 1009.9
20260903180104 78 27 0.0 0.0 0.27 0.50 0.50 87 1009.8
20260903180005 78 180 0.0 0.0 0.24 0.24 0.29 87 1009.7
20260903175704 78 178 0.0 0.0 0.20 0.24 0.25 86 1009.8
20260903175506 79 157 0.0 0.0 0.12 0.24 0.16 85 1009.6
20260903175405 79 157 0.0 0.0 0.12 0.24 0.16 85 1009.5
20260903175203 79 157 0.0 0.0 0.13 0.24 0.16 85 1009.4
20260903175105 79 196 0.0 0.0 0.11 0.24 0.15 85 1009.4
20260903174905 79 207 0.0 0.0 0.09 0.24 0.13 84 1009.2
20260903174704 80 189 0.0 0.0 0.08 0.24 0.12 84 1009.1
20260903174604 80 157 0.0 0.0 0.07 0.24 0.11 84 1009.2
20260903174307 80 168 0.0 0.0 0.03 0.24 0.07 84 1009.4
20260903174203 80 182 0.0 0.0 0.02 0.24 0.07 84 1009.3
20260903174104 81 41 0.0 0.0 0.03 0.24 0.07 85 1009.2
20260903173904 81 171 0.0 0.0 0.07 0.24 0.07 85 1009.4
20260903173705 81 169 0.0 0.0 0.08 0.24 0.07 85 1009.7
20260903173606 81 166 0.0 0.0 0.09 0.24 0.07 87 1009.7
20260903173304 81 161 0.0 0.0 0.11 0.24 0.07 87 1009.7
20260903173210 82 110 0.0 0.0 0.13 0.24 0.07 90 1009.8
20260903173203 82 149 0.0 0.0 0.13 0.24 0.07 89 1009.8
20260903172906 81 111 0.0 0.0 0.14 0.24 0.07 90 1009.7
20260903172705 80 107 0.0 0.0 0.15 0.24 0.07 91 1009.8
20260903172506 80 47 0.0 0.0 0.16 0.24 0.07 93 1009.7
20260903172312 79 45 0.0 0.0 0.17 0.24 0.07 92 1009.7
20260903172211 79 47 0.0 0.0 0.17 0.24 0.07 92 1009.7
20260903172204 79 45 0.0 0.0 0.17 0.24 0.07 93 1009.8
20260903171904 78 47 0.0 0.0 0.17 0.24 0.07 93 1009.8
20260903171807 78 47 0.0 0.0 0.17 0.24 0.07 94 1009.8
20260903171704 78 47 0.0 0.0 0.17 0.24 0.07 94 1009.8
20260903171504 78 45 0.0 0.0 0.17 0.24 0.07 94 1009.9
20260903171304 77 39 0.0 0.0 0.17 0.24 0.07 94 1009.9
20260903171205 76 39 0.0 0.0 0.17 0.24 0.07 94 1010.0
20260903171104 76 41 0.0 0.0 0.17 0.24 0.07 94 1010.0
20260903170905 77 39 0.0 0.0 0.17 0.24 0.07 95 1009.9
20260903170808 76 39 0.0 0.0 0.17 0.24 0.07 94 1010.1
20260903170704 76 39 0.0 0.0 0.17 0.24 0.07 94 1010.1
20260903170509 76 41 0.0 0.0 0.17 0.24 0.24 92 1010.2
20260903170305 76 41 0.0 0.0 0.17 0.24 0.24 92 1010.1
20260903170205 76 41 0.0 0.0 0.17 0.24 0.24 92 1010.2
20260903170106 76 41 0.0 0.0 0.17 0.24 0.24 92 1010.2
20260903165930 76 41 0.0 0.0 0.17 0.07 0.24 92 1010.3
20260903165734 76 41 0.0 0.0 0.17 0.07 0.24 91 1010.4
20260903165703 76 41 0.0 0.0 0.17 0.07 0.24 92 1010.3
20260903165507 77 41 0.0 0.0 0.15 0.07 0.22 90 1010.4
20260903165454 76 41 0.0 0.0 0.16 0.07 0.23 91 1010.5
20260903165422 76 41 0.0 0.0 0.15 0.07 0.22 91 1010.4
20260903165034 77 44 0.0 0.0 0.15 0.07 0.22 90 1010.3
20260903164834 77 44 0.0 0.0 0.15 0.07 0.22 90 1010.2
20260903164700 77 51 0.0 0.0 0.15 0.07 0.22 89 1010.1
20260903164608 77 52 0.0 0.0 0.15 0.07 0.22 89 1010.2
20260903164504 77 93 0.0 0.0 0.15 0.07 0.22 89 1010.1
20260903164309 77 47 0.0 0.0 0.15 0.07 0.21 88 1010.1
20260903164159 78 47 0.0 0.0 0.15 0.07 0.21 88 1010.1
20260903164008 78 51 0.0 0.0 0.13 0.07 0.20 88 1010.2
20260903163808 78 32 0.0 0.0 0.10 0.07 0.16 87 1010.2
20260903163700 78 37 0.0 0.0 0.09 0.07 0.16 87 1010.2
20260903163605 78 8 0.0 0.0 0.09 0.07 0.15 86 1010.2
20260903163405 79 120 0.0 0.0 0.07 0.07 0.13 86 1010.3
20260903163207 79 133 0.0 0.0 0.04 0.07 0.11 86 1010.5
20260903163159 79 133 0.0 0.0 0.04 0.07 0.11 86 1010.5
20260903163106 79 133 0.0 0.0 0.03 0.07 0.10 86 1010.5
20260903162804 79 133 0.0 0.0 0.03 0.07 0.09 86 1010.4
20260903162658 79 131 0.0 0.0 0.02 0.07 0.09 85 1010.5
20260903162611 79 131 0.0 0.0 0.02 0.07 0.08 85 1010.5
20260903162403 79 131 0.0 0.0 0.01 0.07 0.07 85 1010.5
20260903162206 80 134 0.0 0.0 0.00 0.07 0.07 84 1010.2
20260903162201 80 133 0.0 0.0 0.00 0.07 0.07 84 1010.2
20260903162002 80 155 0.0 0.0 0.00 0.07 0.07 84 1010.2
20260903161805 80 155 0.0 0.0 0.00 0.07 0.07 84 1010.2
20260903161706 80 157 0.0 0.0 0.00 0.07 0.07 84 1010.3
20260903161702 80 155 0.0 0.0 0.00 0.07 0.07 84 1010.3
20260903161500 80 155 0.0 0.0 0.00 0.07 0.07 84 1010.3
20260903161206 80 157 0.0 0.0 0.00 0.07 0.07 84 1010.2
20260903161201 80 157 0.0 0.0 0.00 0.07 0.07 84 1010.3
20260903161002 80 155 0.0 0.0 0.00 0.07 0.07 84 1010.3
20260903160951 80 158 0.0 0.0 0.00 0.07 0.07 84 1010.4
20260903160923 80 157 0.0 0.0 0.00 0.07 0.07 84 1010.3
20260903160617 80 157 0.0 0.0 0.00 0.07 0.07 84 1010.4
20260903160408 79 155 0.0 0.0 0.00 0.07 0.07 84 1010.4
20260903160306 80 20 0.0 0.0 0.00 0.07 0.07 86 1010.4
20260903160151 80 20 0.0 0.0 0.00 0.07 0.07 86 1010.4
20260903160111 79 20 0.0 0.0 0.00 0.07 0.07 86 1010.3
20260903155935 78 161 0.0 0.0 0.00 0.07 0.07 86 1010.3
20260903155916 78 35 0.0 0.0 0.00 0.07 0.07 86 1010.3
20260903155553 78 94 0.0 0.0 0.00 0.07 0.07 85 1010.4
20260903155351 78 16 0.0 0.0 0.00 0.07 0.07 86 1010.3
20260903155151 78 0 0.0 0.0 0.00 0.07 0.07 85 1010.4
20260903155107 78 166 0.0 0.0 0.00 0.07 0.07 85 1010.2
20260903155059 78 166 0.0 0.0 0.00 0.07 0.07 85 1010.2
20260903155042 78 331 0.0 0.0 0.00 0.07 0.07 85 1010.3
20260903154643 78 155 0.0 0.0 0.00 0.07 0.07 85 1010.3
20260903154348 78 157 0.0 0.0 0.00 0.07 0.07 85 1010.2
20260903154146 78 128 0.0 0.0 0.00 0.07 0.07 85 1010.3
20260903154014 78 38 0.0 0.0 0.00 0.07 0.07 86 1010.2
20260903153948 78 137 0.0 0.0 0.00 0.07 0.07 86 1010.3
20260903153943 78 37 0.0 0.0 0.00 0.07 0.07 86 1010.3
20260903153544 78 37 0.0 0.0 0.00 0.07 0.07 86 1010.2
20260903153443 78 35 0.0 0.0 0.00 0.07 0.07 86 1010.2
20260903153140 78 35 0.0 0.0 0.00 0.07 0.07 86 1010.3
20260903153134 78 38 0.0 0.0 0.00 0.07 0.07 86 1010.3
20260903152938 78 144 0.0 0.0 0.00 0.07 0.07 87 1010.3
20260903152740 78 142 0.0 0.0 0.00 0.07 0.07 87 1010.2
20260903152633 77 142 0.0 0.0 0.00 0.07 0.07 87 1010.2
20260903152536 77 145 0.0 0.0 0.00 0.07 0.07 87 1010.2
20260903152445 77 37 0.0 0.0 0.00 0.07 0.07 88 1010.2
20260903152134 77 42 0.0 0.0 0.00 0.07 0.07 89 1010.2
20260903152030 77 41 0.0 0.0 0.00 0.07 0.07 89 1010.3
20260903151738 77 42 0.0 0.0 0.00 0.07 0.07 89 1010.2
20260903151631 76 42 0.0 0.0 0.00 0.07 0.07 88 1010.2
20260903151532 76 41 0.0 0.0 0.00 0.07 0.07 88 1010.2
20260903151350 76 49 0.0 0.0 0.00 0.07 0.07 88 1010.3
20260903151135 76 44 0.0 0.0 0.00 0.07 0.07 88 1010.3
20260903151048 76 44 0.0 0.0 0.00 0.07 0.07 88 1010.3
20260903150742 76 55 0.0 0.0 0.00 0.07 0.07 88 1010.3
20260903150623 76 54 0.0 0.0 0.00 0.07 0.07 88 1010.3
20260903150531 76 54 0.0 0.0 0.00 0.07 0.07 88 1010.3
20260903150446 76 39 0.0 0.0 0.00 0.07 0.07 88 1010.3
20260903150130 76 41 0.0 0.0 0.00 0.07 0.07 87 1010.4
20260903150124 76 39 0.0 0.0 0.00 0.07 0.07 87 1010.4
20260903145930 76 42 0.0 0.0 0.00 0.07 0.07 87 1010.3
20260903145730 76 44 0.0 0.0 0.00 0.07 0.07 87 1010.3
20260903145621 76 42 0.0 0.0 0.00 0.07 0.07 87 1010.3
20260903145532 76 41 0.0 0.0 0.00 0.07 0.07 87 1010.3
20260903145430 76 42 0.0 0.0 0.00 0.07 0.07 87 1010.2
20260903145131 76 41 0.0 0.0 0.00 0.07 0.07 87 1010.2
20260903145120 76 42 0.0 0.0 0.00 0.07 0.07 87 1010.2
20260903145029 76 42 0.0 0.0 0.00 0.07 0.07 87 1010.1
20260903144729 76 41 0.0 0.0 0.00 0.07 0.07 87 1010.1
20260903144621 76 38 0.0 0.0 0.00 0.07 0.07 87 1010.2
20260903144529 76 41 0.0 0.0 0.00 0.07 0.07 87 1010.2
20260903144326 76 38 0.0 0.0 0.00 0.07 0.07 86 1010.3
20260903144126 76 38 0.0 0.0 0.00 0.07 0.07 86 1010.3
20260903144118 76 37 0.0 0.0 0.00 0.07 0.07 86 1010.3
20260903144024 76 35 0.0 0.0 0.00 0.07 0.07 86 1010.2
20260903143721 76 38 0.0 0.0 0.00 0.07 0.07 86 1010.1
20260903143624 76 23 0.0 0.0 0.00 0.07 0.07 86 1010.0
20260903143617 76 37 0.0 0.0 0.00 0.07 0.07 86 1010.1
20260903143322 76 31 0.0 0.0 0.00 0.07 0.07 86 1010.1
20260903143119 76 27 0.0 0.0 0.00 0.07 0.07 86 1010.2
20260903142920 76 25 0.0 0.0 0.00 0.07 0.07 86 1010.2
20260903142719 76 25 0.0 0.0 0.00 0.07 0.07 86 1010.1
20260903142622 76 48 0.0 0.0 0.00 0.07 0.07 86 1010.0
20260903142617 76 27 0.0 0.0 0.00 0.07 0.07 86 1010.0
20260903142421 76 39 0.0 0.0 0.00 0.07 0.07 87 1009.9
20260903142120 76 32 0.0 0.0 0.00 0.07 0.07 87 1010.0
20260903142115 76 34 0.0 0.0 0.00 0.07 0.07 87 1010.0
20260903142013 76 32 0.0 0.0 0.00 0.07 0.07 87 1010.2
20260903141718 76 34 0.0 0.0 0.00 0.07 0.07 87 1010.0
20260903141615 76 62 0.0 0.0 0.00 0.07 0.07 87 1010.1
20260903141520 76 61 0.0 0.0 0.00 0.07 0.07 88 1010.1
20260903141416 76 31 0.0 0.0 0.00 0.07 0.07 88 1010.1
20260903141357 76 45 0.0 0.0 0.00 0.07 0.07 88 1010.1
20260903141105 76 31 0.0 0.0 0.00 0.07 0.07 88 1010.1
20260903141003 75 51 0.0 0.0 0.00 0.07 0.07 88 1010.1
20260903140705 75 49 0.0 0.0 0.00 0.07 0.07 87 1010.2
20260903140614 75 49 0.0 0.0 0.00 0.07 0.07 87 1010.2
20260903140607 75 51 0.0 0.0 0.00 0.07 0.07 87 1010.2
20260903140302 75 51 0.0 0.0 0.00 0.07 0.07 87 1010.3
20260903140121 75 48 0.0 0.0 0.00 0.07 0.07 87 1010.3
20260903140115 75 49 0.0 0.0 0.00 0.07 0.07 87 1010.3
20260903135902 75 49 0.0 0.0 0.00 0.07 0.07 87 1010.3
20260903135702 75 51 0.0 0.0 0.00 0.07 0.07 87 1010.4
20260903135612 75 49 0.0 0.0 0.00 0.07 0.07 87 1010.3
20260903135601 75 49 0.0 0.0 0.00 0.07 0.07 87 1010.3
20260903135306 76 49 0.0 0.0 0.00 0.07 0.07 88 1010.3
20260903135201 76 51 0.0 0.0 0.00 0.07 0.07 88 1010.1
20260903135112 76 51 0.0 0.0 0.00 0.07 0.07 88 1010.1
20260903134902 76 51 0.0 0.0 0.00 0.07 0.07 87 1010.2
20260903134704 76 48 0.0 0.0 0.00 0.07 0.07 87 1010.2
20260903134612 76 35 0.0 0.0 0.00 0.07 0.07 87 1010.1
20260903134505 76 34 0.0 0.0 0.00 0.07 0.07 87 1010.2
20260903134305 76 31 0.0 0.0 0.00 0.07 0.07 88 1010.1
20260903134113 76 39 0.0 0.0 0.00 0.07 0.07 88 1010.2
20260903134108 76 41 0.0 0.0 0.00 0.07 0.07 88 1010.2
20260903134006 76 58 0.0 0.0 0.00 0.07 0.07 88 1010.2
20260903133705 75 52 0.0 0.0 0.00 0.07 0.07 89 1010.2
20260903133610 75 54 0.0 0.0 0.00 0.07 0.07 89 1010.3
20260903133605 75 54 0.0 0.0 0.00 0.07 0.07 89 1010.3
20260903133304 75 109 0.0 0.0 0.00 0.07 0.07 89 1010.2
20260903133104 74 244 0.0 0.0 0.00 0.07 0.07 89 1010.2
20260903132903 74 247 0.0 0.0 0.00 0.07 0.07 90 1010.2
20260903132656 74 245 0.0 0.0 0.00 0.07 0.07 90 1010.2
20260903132611 74 245 0.0 0.0 0.00 0.07 0.07 90 1010.2
20260903132557 74 245 0.0 0.0 0.00 0.07 0.07 90 1010.2
20260903132411 74 245 0.0 0.0 0.00 0.07 0.07 90 1010.2
20260903132407 74 244 0.0 0.0 0.00 0.07 0.07 90 1010.2
20260903132349 74 244 0.0 0.0 0.00 0.07 0.07 90 1010.1
20260903131852 73 245 0.0 0.0 0.00 0.07 0.07 90 1010.2
20260903131651 73 245 0.0 0.0 0.00 0.07 0.07 90 1010.2
20260903131603 73 245 0.0 0.0 0.00 0.07 0.07 90 1010.2
20260903131451 73 245 0.0 0.0 0.00 0.07 0.07 90 1010.2
20260903131408 73 312 0.0 0.0 0.00 0.07 0.07 90 1010.2
20260903131404 73 314 0.0 0.0 0.00 0.07 0.07 90 1010.1
20260903131344 73 245 0.0 0.0 0.00 0.07 0.07 90 1010.2
20260903130850 73 162 0.0 0.0 0.00 0.07 0.07 90 1010.1
20260903130746 73 176 0.0 0.0 0.00 0.07 0.07 90 1010.1
20260903130604 73 178 0.0 0.0 0.00 0.07 0.07 90 1010.1
20260903130450 73 179 0.0 0.0 0.00 0.07 0.07 90 1010.2
20260903130426 73 183 0.0 0.0 0.00 0.07 0.07 90 1010.0
20260903130403 73 179 0.0 0.0 0.00 0.07 0.07 90 1010.1
20260903130047 73 180 0.0 0.0 0.00 0.07 0.07 90 1010.0
20260903125941 73 168 0.0 0.0 0.00 0.07 0.07 90 1009.9
20260903125644 72 154 0.0 0.0 0.00 0.07 0.07 91 1009.9
20260903125607 72 164 0.0 0.0 0.00 0.07 0.07 91 1009.9
20260903125541 73 171 0.0 0.0 0.00 0.07 0.07 91 1010.0
20260903125244 73 172 0.0 0.0 0.00 0.07 0.07 91 1010.0
20260903125103 73 175 0.0 0.0 0.00 0.07 0.07 91 1009.9
20260903125047 72 175 0.0 0.0 0.00 0.07 0.07 91 1010.0
20260903124839 73 219 0.0 0.0 0.00 0.07 0.07 91 1009.9
20260903124635 72 113 0.0 0.0 0.00 0.07 0.07 91 1010.0
20260903124607 73 161 0.0 0.0 0.00 0.07 0.07 91 1010.0
20260903124533 72 164 0.0 0.0 0.00 0.07 0.07 91 1010.0
20260903124407 73 145 0.0 0.0 0.00 0.07 0.07 92 1009.9
20260903124403 73 145 0.0 0.0 0.00 0.07 0.07 92 1009.9
20260903124339 73 148 0.0 0.0 0.00 0.07 0.07 92 1010.0
20260903123831 72 151 0.0 0.0 0.00 0.07 0.07 92 1010.0
20260903123603 72 152 0.0 0.0 0.00 0.07 0.07 92 1010.0
20260903123424 72 144 0.0 0.0 0.00 0.07 0.07 92 1010.1
20260903123410 73 190 0.0 0.0 0.00 0.07 0.07 92 1009.9
20260903123405 73 195 0.0 0.0 0.00 0.07 0.07 92 1009.9
20260903123343 73 141 0.0 0.0 0.00 0.07 0.07 92 1009.9
20260903122823 73 155 0.0 0.0 0.00 0.07 0.07 92 1009.9
20260903122722 73 188 0.0 0.0 0.01 0.07 0.07 93 1009.6
20260903122603 73 188 0.0 0.0 0.01 0.07 0.07 93 1009.6
20260903122422 73 200 0.0 0.0 0.03 0.07 0.07 93 1009.3
20260903122405 73 233 0.0 0.0 0.07 0.07 0.07 93 1009.2
20260903122339 73 231 0.0 0.0 0.07 0.07 0.07 93 1009.2
20260903122022 73 230 0.0 0.0 0.07 0.07 0.07 93 1009.2
20260903121822 73 347 0.0 0.0 0.07 0.07 0.07 93 1009.1
20260903121621 73 141 0.0 0.0 0.07 0.07 0.07 92 1009.2
20260903121601 73 158 0.0 0.0 0.07 0.07 0.07 92 1009.2
20260903121521 73 32 0.0 0.0 0.07 0.07 0.07 92 1009.3
20260903121223 73 168 0.0 0.0 0.07 0.07 0.07 92 1009.4
20260903121103 73 168 0.0 0.0 0.07 0.07 0.07 92 1009.4
20260903121004 73 168 0.0 0.0 0.07 0.07 0.07 92 1009.5
20260903120902 73 164 0.0 0.0 0.07 0.07 0.07 92 1009.7
20260903120601 73 44 0.0 0.0 0.07 0.07 0.07 92 1009.7
20260903120437 74 158 0.0 0.0 0.07 0.07 0.07 92 1009.6
20260903120431 74 164 0.0 0.0 0.07 0.00 0.07 92 1009.6
20260903120425 73 32 0.0 0.0 0.07 0.07 0.07 92 1009.5
20260903120352 74 158 0.0 0.0 0.07 0.07 0.07 92 1009.5
20260903115802 74 124 0.0 0.0 0.07 0.00 0.07 92 1009.7
20260903115610 74 155 0.0 0.0 0.00 0.00 0.07 92 1009.8
20260903115606 74 154 0.0 0.0 0.00 0.00 0.07 92 1009.8
20260903115508 74 155 0.0 0.0 0.00 0.00 0.07 92 1009.7
20260903115409 74 173 0.0 0.0 0.00 0.00 0.07 92 1009.7
20260903115337 74 173 0.0 0.0 0.00 0.00 0.07 92 1009.7
20260903115004 74 179 0.0 0.0 0.00 0.00 0.07 93 1009.7
20260903114804 74 180 0.0 0.0 0.00 0.00 0.07 93 1009.8
20260903114708 74 183 0.0 0.0 0.00 0.00 0.07 93 1010.0
20260903114606 74 185 0.0 0.0 0.00 0.00 0.07 93 1010.0
20260903114411 74 168 0.0 0.0 0.00 0.00 0.07 92 1010.0
20260903114405 74 180 0.0 0.0 0.00 0.00 0.07 92 1010.1
20260903114339 74 196 0.0 0.0 0.00 0.00 0.07 92 1010.0
20260903114005 74 168 0.0 0.0 0.00 0.00 0.07 92 1010.1
20260903113807 74 103 0.0 0.0 0.00 0.00 0.07 92 1010.1
20260903113615 74 171 0.0 0.0 0.00 0.00 0.07 92 1010.6
20260903113610 74 159 0.0 0.0 0.00 0.00 0.07 92 1010.4
20260903113604 74 159 0.0 0.0 0.00 0.00 0.07 92 1010.4
20260903113205 75 203 0.0 0.0 0.00 0.00 0.07 92 1010.4
20260903113103 75 227 0.0 0.0 0.00 0.00 0.07 92 1010.5
20260903113007 75 224 0.0 0.0 0.00 0.00 0.07 92 1010.5
20260903112803 75 186 0.0 0.0 0.00 0.00 0.06 92 1010.5
20260903112609 75 189 0.0 0.0 0.00 0.00 0.05 92 1010.7
20260903112604 75 189 0.0 0.0 0.00 0.00 0.05 92 1010.7
20260903112404 75 196 0.0 0.0 0.00 0.00 0.00 92 1010.7
20260903112209 75 197 0.0 3.0 0.00 0.00 0.00 93 1010.7
20260903112205 75 209 0.0 0.0 0.00 0.00 0.00 93 1010.7
20260903112105 75 209 0.0 0.0 0.00 0.00 0.00 93 1010.7
20260903111804 74 168 0.0 5.0 0.00 0.00 0.00 93 1010.6
20260903111605 74 207 0.0 5.0 0.00 0.00 0.00 94 1010.7
20260903111407 74 188 0.0 5.0 0.00 0.00 0.00 94 1010.6
20260903111205 74 169 0.0 5.0 0.00 0.00 0.00 94 1010.6
20260903111103 74 192 0.0 5.0 0.00 0.00 0.00 94 1010.6
20260903111003 74 192 0.0 5.0 0.00 0.00 0.00 94 1010.6
20260903110811 74 193 0.0 5.0 0.00 0.00 0.00 94 1010.3
20260903110805 74 193 0.0 5.0 0.00 0.00 0.00 94 1010.5
20260903110607 74 193 0.0 5.0 0.00 0.00 0.00 94 1010.3
20260903110403 74 207 0.0 5.0 0.00 0.00 0.00 94 1010.4
20260903110238 74 175 0.0 3.0 0.00 0.00 0.00 94 1010.3
20260903110203 74 220 0.0 3.0 0.00 0.00 0.00 94 1010.4
20260903110116 74 175 0.0 3.0 0.00 0.00 0.00 94 1010.3
20260903105803 74 173 0.0 2.0 0.00 0.00 0.00 94 1010.3
20260903105619 0 0.0 0.0 0.00 0.00 0.00 1010.3
20260903105334 0 0.0 0.0 0.00 0.00 0.00
20260903105114 0 0.0 0.0 0.00 0.00 0.00
20260903104907 0 0.0 0.0 0.00 0.00 0.00
20260903104707 0 0.0 0.0 0.00 0.00 0.00
20260903104639 0 0.0 0.0 0.00 0.00 0.00
20260903104439 0 0.0 0.0 0.00 0.00 0.00
20260903104236 0 0.0 0.0 0.00 0.00 0.00 1010.3
20260903104223 0 0.0 0.0 0.00 0.01 0.00 1010.3
20260903104159 0 0.0 0.0 0.00 0.00 0.00 1010.3
20260903103835 0 0.0 0.0 0.00 0.01 0.00 1010.3
20260903103608 74 165 0.0 2.0 0.00 0.02 0.00 95 1010.3
20260903103411 74 165 0.0 4.0 0.00 0.05 0.00 95 1010.3
20260903103246 74 165 0.0 6.0 0.00 0.14 0.00 95 1010.4
20260903103212 74 165 0.0 6.0 0.00 0.14 0.00 95 1010.5
20260903103124 74 165 0.0 6.0 0.00 0.14 0.00 95 1010.5
20260903102745 74 165 0.0 6.0 0.00 0.14 0.00 95 1010.4
20260903102543 74 169 0.0 6.0 0.00 0.14 0.00 95 1010.5
20260903102344 73 193 0.0 6.0 0.00 0.14 0.00 95 1010.5
20260903102204 73 171 0.0 5.0 0.00 0.14 0.00 95 1010.6
20260903102156 73 161 0.0 6.0 0.00 0.14 0.00 95 1010.5
20260903102113 73 176 0.0 5.0 0.00 0.14 0.00 95 1010.6
20260903101741 73 182 0.0 5.0 0.00 0.14 0.00 95 1010.4
20260903101539 73 175 0.0 4.0 0.00 0.14 0.00 95 1010.2
20260903101349 73 145 0.0 3.0 0.00 0.14 0.00 96 1010.2
20260903101340 73 141 0.0 3.0 0.00 0.14 0.00 96 1010.2
20260903101251 73 175 0.0 3.0 0.00 0.14 0.00 96 1010.0
20260903101201 73 195 0.0 3.0 0.00 0.14 0.00 96 1010.0
20260903101116 73 192 0.0 3.0 0.00 0.14 0.00 96 1010.0
20260903100837 73 197 0.0 3.0 0.00 0.14 0.00 96 1010.1
20260903100536 73 147 0.0 2.0 0.00 0.14 0.00 96 1010.2
20260903100347 73 149 0.0 2.0 0.00 0.14 0.00 96 1010.2
20260903100337 73 144 0.0 2.0 0.00 0.14 0.00 96 1010.1
20260903100139 73 142 0.0 1.0 0.00 0.14 0.00 96 1010.0
20260903095937 73 145 0.0 1.0 0.00 0.14 0.00 96 1010.2
20260903095909 73 144 0.0 2.0 0.00 0.14 0.00 96 1010.3
20260903095854 73 144 0.0 1.0 0.00 0.14 0.00 96 1010.2
20260903095711 73 183 0.0 3.0 0.00 0.14 0.00 96 1010.3
20260903095617 73 183 0.0 2.0 0.00 0.14 0.00 96 1010.2
20260903095122 73 182 0.0 3.0 0.00 0.14 0.00 96 1010.5
20260903094907 73 183 0.0 4.0 0.00 0.14 0.00 96 1010.4
20260903094838 73 185 0.0 4.0 0.00 0.14 0.00 96 1010.4
20260903094707 73 183 0.0 4.0 0.00 0.14 0.00 96 1010.4
20260903094651 73 183 0.0 4.0 0.00 0.14 0.00 96 1010.6
20260903094646 73 185 0.0 4.0 0.00 0.14 0.00 96 1010.6
20260903094618 73 185 0.0 4.0 0.00 0.14 0.00 96 1010.5
20260903094231 72 185 0.0 4.0 0.00 0.14 0.00 96 1010.5
20260903094139 72 193 0.0 3.0 0.00 0.14 0.00 96 1010.6
20260903093839 72 190 0.0 3.0 0.00 0.14 0.00 96 1010.6
20260903093707 72 171 0.0 3.0 0.00 0.14 0.00 96 1010.6
20260903093646 72 147 0.0 2.0 0.00 0.14 0.00 96 1010.4
20260903093611 72 147 0.0 2.0 0.00 0.14 0.00 96 1010.5
20260903093258 72 148 0.0 2.0 0.00 0.14 0.00 96 1010.4
20260903093101 72 123 0.0 2.0 0.00 0.14 0.00 96 1010.4
20260903092855 72 68 0.0 2.0 0.00 0.14 0.00 96 1010.3
20260903092842 72 66 0.0 2.0 0.00 0.14 0.00 96 1010.3
20260903092658 72 68 0.0 2.0 0.00 0.14 0.00 96 1010.3
20260903092652 72 68 0.0 2.0 0.00 0.14 0.00 96 1010.2
20260903092341 72 69 0.0 2.0 0.00 0.14 0.00 96 1010.2
20260903092249 72 68 0.0 2.0 0.00 0.14 0.00 97 1010.2
20260903092052 72 68 0.0 1.0 0.00 0.14 0.00 97 1010.3
20260903091850 72 68 0.0 1.0 0.00 0.14 0.00 97 1010.2
20260903091838 72 69 0.0 1.0 0.00 0.14 0.00 97 1010.2
20260903091650 72 69 0.0 1.0 0.00 0.14 0.00 97 1010.3
20260903091448 72 68 0.0 1.0 0.00 0.14 0.00 97 1010.2
20260903091348 72 69 0.0 1.0 0.00 0.14 0.00 97 1010.2
20260903091252 72 66 0.0 1.0 0.00 0.14 0.00 96 1010.2
20260903091246 72 68 0.0 1.0 0.00 0.14 0.00 96 1010.2
20260903090848 72 66 0.0 1.0 0.00 0.14 0.00 96 1010.0
20260903090834 72 68 0.0 1.0 0.00 0.14 0.00 96 1010.0
20260903090644 72 66 0.0 1.0 0.00 0.14 0.00 96 1010.0
20260903090443 72 65 0.0 1.0 0.00 0.14 0.00 96 1010.0
20260903090334 72 63 0.0 2.0 0.00 0.14 0.00 96 1009.9
20260903090242 72 63 0.0 2.0 0.00 0.14 0.00 96 1009.9
20260903090046 72 63 0.0 2.0 0.00 0.14 0.00 96 1009.9
20260903085834 72 63 0.0 2.0 0.00 0.14 0.00 96 1009.9
20260903085746 72 62 0.0 2.0 0.00 0.14 0.00 96 1009.9
20260903085440 72 63 0.0 2.0 0.00 0.14 0.00 96 1010.0
20260903085334 72 152 0.0 0.0 0.00 0.14 0.00 96 1010.1
20260903085240 72 154 0.0 0.0 0.00 0.14 0.00 97 1010.1
20260903085042 72 152 0.0 0.0 0.00 0.14 0.00 97 1010.0
20260903084833 72 152 0.0 0.0 0.00 0.14 0.00 96 1010.1
20260903084743 72 151 0.0 0.0 0.00 0.14 0.00 96 1010.0
20260903084438 72 152 0.0 0.0 0.00 0.14 0.00 96 1009.9
20260903084344 72 152 0.0 0.0 0.00 0.14 0.00 96 1009.9
20260903084332 72 152 0.0 0.0 0.00 0.14 0.00 96 1009.9
20260903084213 72 152 0.0 0.0 0.00 0.14 0.00 96 1010.0
20260903084148 72 152 0.0 0.0 0.00 0.14 0.00 96 1009.9
20260903084102 72 154 0.0 0.0 0.00 0.14 0.00 96 1010.0
20260903083637 72 152 0.0 0.0 0.00 0.14 0.00 96 1010.0
20260903083440 72 151 0.0 0.0 0.00 0.14 0.00 96 1010.0
20260903083345 72 152 0.0 0.0 0.00 0.14 0.00 96 1010.1
20260903083330 72 152 0.0 0.0 0.00 0.14 0.00 96 1010.1
20260903083210 72 154 0.0 2.0 0.00 0.14 0.00 96 1010.0
20260903083206 72 152 0.0 2.0 0.00 0.14 0.00 96 1010.0
20260903083146 72 152 0.0 2.0 0.00 0.14 0.00 96 1010.0
20260903082632 72 154 0.0 2.0 0.00 0.14 0.00 96 1010.0
20260903082432 72 154 0.0 2.0 0.00 0.14 0.00 96 1009.9
20260903082320 72 152 0.0 2.0 0.00 0.14 0.00 96 1010.0
20260903082230 72 152 0.0 2.0 0.00 0.14 0.00 96 1010.0
20260903082141 72 152 0.0 2.0 0.00 0.14 0.00 96 1010.0
20260903082121 72 152 0.0 2.0 0.00 0.14 0.00 96 1010.0
20260903082042 72 154 0.0 2.0 0.00 0.14 0.00 96 1010.0
20260903081627 72 152 0.0 2.0 0.00 0.14 0.00 96 1010.0
20260903081425 72 152 0.0 1.0 0.00 0.14 0.00 96 1010.0
20260903081317 72 152 0.0 1.0 0.00 0.14 0.00 96 1010.0
20260903081228 72 152 0.0 1.0 0.00 0.14 0.00 96 1010.1
20260903081222 72 152 0.0 1.0 0.00 0.14 0.00 96 1010.0
20260903081140 72 152 0.0 1.0 0.00 0.14 0.00 96 1010.2
20260903081034 72 152 0.0 1.0 0.00 0.14 0.00 96 1010.2
20260903080716 72 152 0.0 1.0 0.00 0.14 0.00 96 1010.2
20260903080420 72 152 0.0 1.0 0.00 0.14 0.00 96 1010.3
20260903080316 72 152 0.0 1.0 0.00 0.14 0.00 96 1010.2
20260903080213 72 152 0.0 1.0 0.00 0.14 0.00 96 1010.2
20260903080021 72 151 0.0 1.0 0.00 0.14 0.00 96 1010.2
20260903075821 72 152 0.0 1.0 0.00 0.14 0.00 96 1010.2
20260903075815 72 154 0.0 1.0 0.00 0.14 0.00 96 1010.2
20260903075715 72 152 0.0 1.0 0.00 0.14 0.00 96 1010.2
20260903075413 72 154 0.0 0.0 0.00 0.14 0.00 96 1010.3
20260903075325 72 152 0.0 0.0 0.00 0.14 0.00 96 1010.3
20260903075315 72 152 0.0 0.0 0.00 0.14 0.00 96 1010.3
20260903075032 72 152 0.0 0.0 0.00 0.14 0.00 96 1010.4
20260903074814 72 154 0.0 0.0 0.00 0.14 0.00 96 1010.3
20260903074806 72 152 0.0 0.0 0.00 0.14 0.00 96 1010.3
20260903074604 72 152 0.0 0.0 0.00 0.14 0.00 96 1010.3
20260903074351 72 152 0.0 0.0 0.00 0.14 0.00 96 1010.1
20260903074313 72 154 0.0 0.0 0.00 0.14 0.00 96 1010.2
20260903074246 72 152 0.0 0.0 0.00 0.14 0.00 96 1010.2
20260903073943 72 152 0.0 0.0 0.00 0.14 0.00 96 1010.2
20260903073845 72 152 0.0 0.0 0.00 0.14 0.00 96 1010.3
20260903073811 72 152 0.0 0.0 0.00 0.14 0.00 96 1010.3
20260903073641 72 152 0.0 0.0 0.00 0.14 0.00 96 1010.3
20260903073342 72 154 0.0 0.0 0.00 0.15 0.00 96 1010.3
20260903073312 72 152 0.0 0.0 0.00 0.15 0.00 96 1010.3
20260903073141 72 154 0.0 0.0 0.00 0.15 0.00 96 1010.3
20260903072941 72 151 0.0 0.0 0.00 0.15 0.00 96 1010.3
20260903072808 72 152 0.0 0.0 0.00 0.15 0.00 96 1010.4
20260903072741 72 152 0.0 0.0 0.00 0.15 0.00 96 1010.4
20260903072546 72 152 0.0 0.0 0.00 0.15 0.00 96 1010.5
20260903072540 72 152 0.0 0.0 0.00 0.15 0.00 96 1010.4
20260903072309 72 152 0.0 0.0 0.00 0.15 0.00 96 1010.5
20260903072139 72 152 0.0 0.0 0.00 0.15 0.00 96 1010.5
20260903072134 72 152 0.0 0.0 0.00 0.16 0.00 96 1010.5
20260903072043 72 152 0.0 0.0 0.00 0.16 0.00 96 1010.5
20260903071739 72 154 0.0 0.0 0.00 0.16 0.00 96 1010.5
20260903071539 72 152 0.0 0.0 0.00 0.16 0.00 96 1010.5
20260903071343 72 152 0.0 1.0 0.00 0.16 0.00 96 1010.6
20260903071309 72 152 0.0 1.0 0.00 0.16 0.00 96 1010.5
20260903071242 72 152 0.0 1.0 0.00 0.17 0.00 96 1010.5
20260903071150 72 152 0.0 1.0 0.00 0.17 0.00 96 1010.5
20260903071102 72 152 0.0 1.0 0.00 0.17 0.00 96 1010.5
20260903070742 72 151 0.0 1.0 0.00 0.17 0.00 96 1010.5
20260903070542 72 152 0.0 1.0 0.00 0.17 0.00 96 1010.4
20260903070343 72 152 0.0 2.0 0.00 0.17 0.00 96 1010.5
20260903070306 72 154 0.0 2.0 0.00 0.17 0.00 96 1010.6
20260903070143 72 152 0.0 2.0 0.00 0.17 0.00 96 1010.5
20260903070106 72 152 0.0 2.0 0.00 0.17 0.00 96 1010.4
20260903070050 72 152 0.0 2.0 0.00 0.17 0.00 96 1010.5
20260903065744 72 152 0.0 2.0 0.00 0.17 0.00 96 1010.4
20260903065643 72 152 0.0 2.0 0.00 0.17 0.00 96 1010.4
20260903065342 72 152 0.0 0.0 0.00 0.17 0.00 96 1010.4
20260903065306 72 152 0.0 0.0 0.00 0.17 0.00 96 1010.4
20260903065148 72 152 0.0 0.0 0.00 0.17 0.00 95 1010.5
20260903065143 72 152 0.0 0.0 0.00 0.17 0.00 96 1010.5
20260903064804 72 152 0.0 0.0 0.00 0.17 0.00 95 1010.4
20260903064743 72 152 0.0 0.0 0.00 0.17 0.00 95 1010.4
20260903064542 72 152 0.0 0.0 0.00 0.17 0.00 95 1010.6
20260903064337 72 152 0.0 0.0 0.00 0.17 0.00 95 1010.6
20260903064304 72 154 0.0 0.0 0.00 0.17 0.00 95 1010.6
20260903064135 72 154 0.0 0.0 0.00 0.17 0.00 95 1010.7
20260903063939 72 152 0.0 0.0 0.00 0.17 0.00 95 1010.6
20260903063803 72 152 0.0 0.0 0.00 0.18 0.00 96 1010.7
20260903063744 72 152 0.0 0.0 0.00 0.18 0.00 96 1010.6
20260903063734 72 152 0.0 0.0 0.00 0.18 0.00 96 1010.6
20260903063333 72 151 0.0 0.0 0.00 0.18 0.00 96 1010.7
20260903063304 72 152 0.0 0.0 0.00 0.18 0.00 96 1010.7
20260903063135 72 152 0.0 0.0 0.00 0.18 0.00 96 1010.6
20260903062934 72 152 0.0 0.0 0.00 0.19 0.00 96 1010.7
20260903062814 72 152 0.0 0.0 0.00 0.19 0.00 96 1010.6
20260903062732 72 154 0.0 0.0 0.00 0.19 0.00 95 1010.7
20260903062532 72 152 0.0 0.0 0.00 0.19 0.00 95 1010.7
20260903062332 72 151 0.0 0.0 0.00 0.19 0.00 95 1010.6
20260903062326 72 154 0.0 0.0 0.00 0.19 0.00 95 1010.7
20260903062301 72 152 0.0 0.0 0.00 0.19 0.00 95 1010.6
20260903061933 72 152 0.0 0.0 0.00 0.19 0.00 95 1010.7
20260903061800 72 154 0.0 0.0 0.00 0.19 0.00 95 1010.7
20260903061733 72 151 0.0 0.0 0.00 0.19 0.00 95 1010.7
20260903061534 72 151 0.0 0.0 0.00 0.19 0.00 95 1010.7
20260903061423 72 152 0.0 0.0 0.00 0.19 0.00 95 1010.7
20260903061259 72 154 0.0 0.0 0.00 0.19 0.00 95 1010.7
20260903061121 72 152 0.0 0.0 0.00 0.19 0.00 95 1010.7
20260903060919 72 152 0.0 0.0 0.00 0.19 0.00 95 1010.7
20260903060759 72 152 0.0 0.0 0.00 0.19 0.00 95 1010.7
20260903060718 72 151 0.0 0.0 0.00 0.19 0.00 95 1010.7
20260903060513 72 152 0.0 0.0 0.00 0.19 0.00 95 1010.7
20260903060312 72 152 0.0 0.0 0.00 0.19 0.00 95 1010.7
20260903060258 72 152 0.0 0.0 0.00 0.19 0.00 95 1010.7
20260903060213 72 152 0.0 0.0 0.00 0.19 0.00 95 1010.6
20260903060011 72 152 0.0 0.0 0.00 0.19 0.00 95 1010.6
20260903055758 72 154 0.0 0.0 0.00 0.19 0.00 95 1010.7
20260903055710 72 154 0.0 0.0 0.00 0.19 0.00 95 1010.6
20260903055554 72 154 0.0 0.0 0.00 0.19 0.00 95 1010.7
20260903055541 72 151 0.0 0.0 0.00 0.19 0.00 95 1010.6
20260903055508 72 152 0.0 0.0 0.00 0.19 0.00 95 1010.7
20260903055109 72 151 0.0 0.0 0.00 0.19 0.00 95 1010.7
20260903054908 73 152 0.0 0.0 0.00 0.19 0.00 95 1010.7
20260903054809 73 152 0.0 0.0 0.00 0.19 0.00 95 1010.7
20260903054744 73 151 0.0 0.0 0.00 0.19 0.00 95 1010.7
20260903054641 73 152 0.0 0.0 0.00 0.19 0.00 95 1010.7
20260903054547 73 152 0.0 0.0 0.00 0.19 0.00 95 1010.7
20260903054503 73 154 0.0 0.0 0.00 0.19 0.00 95 1010.7
20260903054104 73 152 0.0 0.0 0.00 0.19 0.00 95 1010.7
20260903053905 73 152 0.0 0.0 0.00 0.19 0.00 95 1010.7
20260903053741 73 151 0.0 0.0 0.00 0.19 0.00 95 1010.7
20260903053656 73 154 0.0 0.0 0.00 0.19 0.00 95 1010.7
20260903053541 73 152 0.0 0.0 0.00 0.19 0.00 94 1010.8
20260903053529 73 152 0.0 0.0 0.00 0.19 0.00 95 1010.6
20260903053459 73 152 0.0 0.0 0.00 0.19 0.00 94 1010.8
20260903053055 73 152 0.0 0.0 0.00 0.19 0.00 95 1010.7
20260903052951 73 152 0.0 0.0 0.00 0.19 0.00 95 1010.7
20260903052741 73 152 0.0 0.0 0.00 0.19 0.00 95 1010.7
20260903052650 73 152 0.0 0.0 0.00 0.19 0.00 95 1010.7
20260903052544 73 152 0.0 0.0 0.00 0.19 0.00 95 1010.6
20260903052240 73 151 0.0 0.0 0.00 0.19 0.00 95 1010.6
20260903052044 73 152 0.0 0.0 0.00 0.19 0.00 95 1010.6
20260903051844 73 154 0.0 0.0 0.00 0.19 0.00 94 1010.6
20260903051739 73 154 0.0 0.0 0.00 0.19 0.00 94 1010.6
20260903051644 73 151 0.0 0.0 0.00 0.19 0.00 95 1010.6
20260903051624 73 152 0.0 0.0 0.00 0.19 0.00 94 1010.6
20260903051536 73 152 0.0 0.0 0.00 0.19 0.00 94 1010.6
20260903051457 73 152 0.0 0.0 0.00 0.19 0.00 94 1010.6
20260903051141 73 152 0.0 0.0 0.00 0.19 0.00 94 1010.6
20260903050844 73 152 0.0 0.0 0.00 0.19 0.00 94 1010.7
20260903050739 73 152 0.0 0.0 0.00 0.19 0.00 94 1010.7
20260903050645 73 154 0.0 0.0 0.00 0.19 0.00 94 1010.7
20260903050546 73 152 0.0 0.0 0.00 0.19 0.00 94 1010.7
20260903050531 73 152 0.0 0.0 0.00 0.19 0.00 94 1010.7
20260903050457 73 152 0.0 0.0 0.00 0.19 0.00 94 1010.7
20260903050142 73 152 0.0 0.0 0.00 0.19 0.00 94 1010.8
20260903045842 73 152 0.0 0.0 0.00 0.19 0.19 94 1010.7
20260903045752 73 152 0.0 0.0 0.00 0.19 0.19 94 1010.7
20260903045743 73 152 0.0 0.0 0.00 0.19 0.19 94 1010.7
20260903045546 73 152 0.0 0.0 0.00 0.19 0.19 94 1010.8
20260903045529 73 152 0.0 0.0 0.00 0.19 0.19 94 1010.7
20260903045455 73 152 0.0 0.0 0.00 0.19 0.19 94 1010.8
20260903045042 73 152 0.0 0.0 0.00 0.19 0.19 94 1010.8
20260903044941 73 152 0.0 0.0 0.00 0.19 0.19 94 1010.8
20260903044743 73 152 0.0 0.0 0.00 0.19 0.19 94 1010.8
20260903044642 73 152 0.0 0.0 0.00 0.19 0.19 94 1010.8
20260903044442 73 151 0.0 0.0 0.00 0.19 0.19 94 1010.8
20260903044244 73 152 0.0 0.0 0.00 0.19 0.19 93 1010.9
20260903044042 73 152 0.0 0.0 0.00 0.19 0.19 93 1010.7
20260903043941 73 154 0.0 0.0 0.00 0.19 0.19 93 1010.8
20260903043742 73 152 0.0 0.0 0.00 0.19 0.19 93 1010.8
20260903043642 73 154 0.0 0.0 0.00 0.19 0.19 93 1010.9
20260903043543 73 152 0.0 0.0 0.00 0.19 0.19 93 1010.9
20260903043242 73 152 0.0 0.0 0.00 0.19 0.19 93 1010.8
20260903043043 73 152 0.0 0.0 0.00 0.19 0.19 93 1010.9
20260903042842 73 152 0.0 0.0 0.00 0.19 0.19 93 1010.9
20260903042741 73 152 0.0 0.0 0.00 0.19 0.19 93 1010.9
20260903042642 73 152 0.0 0.0 0.00 0.19 0.19 93 1010.9
20260903042542 73 152 0.0 0.0 0.00 0.19 0.19 93 1010.9
20260903042242 73 152 0.0 0.0 0.00 0.19 0.19 93 1010.9
20260903042144 74 154 0.0 0.0 0.00 0.19 0.19 93 1010.9
20260903041842 74 154 0.0 0.0 0.00 0.19 0.19 93 1010.9
20260903041737 74 152 0.0 0.0 0.00 0.19 0.19 93 1011.0
20260903041642 74 152 0.0 0.0 0.00 0.19 0.19 93 1011.0
20260903041442 74 151 0.0 0.0 0.00 0.19 0.19 93 1011.0
20260903041238 74 152 0.0 0.0 0.00 0.19 0.19 93 1011.1
20260903041043 74 154 0.0 0.0 0.00 0.19 0.19 93 1011.0
20260903040842 74 154 0.0 0.0 0.00 0.19 0.19 93 1011.0
20260903040750 74 152 0.0 0.0 0.00 0.19 0.19 93 1011.0
20260903040738 74 154 0.0 0.0 0.00 0.19 0.19 93 1011.1
20260903040442 74 152 0.0 0.0 0.00 0.19 0.19 92 1011.1
20260903040250 74 152 0.0 0.0 0.00 0.19 0.19 92 1011.0
20260903040237 74 152 0.0 0.0 0.00 0.19 0.19 92 1011.1
20260903040144 74 151 0.0 0.0 0.00 0.19 0.19 92 1011.0
20260903035842 74 152 0.0 0.0 0.00 0.19 0.19 92 1011.0
20260903035734 74 152 0.0 0.0 0.00 0.19 0.19 92 1011.0
20260903035641 74 152 0.0 0.0 0.00 0.19 0.19 92 1011.0
20260903035442 74 151 0.0 0.0 0.00 0.19 0.19 92 1011.1
20260903035345 74 154 0.0 0.0 0.00 0.19 0.19 92 1010.9
20260903035235 74 152 0.0 0.0 0.00 0.19 0.19 92 1011.0
20260903035042 74 152 0.0 0.0 0.00 0.19 0.19 92 1011.0
20260903034843 74 152 0.0 0.0 0.00 0.19 0.19 92 1011.0
20260903034749 74 152 0.0 0.0 0.00 0.19 0.19 92 1011.0
20260903034731 74 152 0.0 0.0 0.00 0.19 0.19 92 1011.0
20260903034441 74 154 0.0 0.0 0.00 0.19 0.19 92 1011.1
20260903034245 74 152 0.0 0.0 0.00 0.19 0.19 92 1011.1
20260903034233 74 155 0.0 0.0 0.00 0.19 0.19 92 1011.1
20260903034042 74 152 0.0 0.0 0.00 0.19 0.19 92 1011.1
20260903033941 74 154 0.0 0.0 0.00 0.19 0.19 92 1011.0
20260903033728 74 152 0.0 0.0 0.00 0.19 0.19 91 1011.1
20260903033642 74 152 0.0 0.0 0.00 0.19 0.19 91 1011.1
20260903033444 74 152 0.0 0.0 0.00 0.19 0.19 91 1011.1
20260903033346 74 154 0.0 0.0 0.00 0.19 0.19 91 1011.0
20260903033229 75 154 0.0 0.0 0.00 0.19 0.19 91 1011.0
20260903033042 75 152 0.0 0.0 0.00 0.19 0.19 91 1011.0
20260903032844 75 154 0.0 0.0 0.00 0.19 0.19 91 1011.0
20260903032728 75 152 0.0 0.0 0.00 0.19 0.19 91 1011.1
20260903032641 75 154 0.0 0.0 0.00 0.19 0.19 91 1011.1
20260903032442 75 154 0.0 0.0 0.00 0.19 0.19 91 1011.1
20260903032243 75 154 0.0 0.0 0.00 0.19 0.19 91 1011.1
20260903032228 75 152 0.0 0.0 0.00 0.19 0.19 92 1011.0
20260903032144 75 152 0.0 0.0 0.00 0.19 0.19 91 1011.1
20260903031842 75 154 0.0 0.0 0.00 0.19 0.19 91 1011.1
20260903031744 75 152 0.0 0.0 0.00 0.19 0.19 91 1011.1
20260903031727 75 152 0.0 0.0 0.00 0.19 0.19 91 1011.1
20260903031442 75 151 0.0 0.0 0.00 0.19 0.19 91 1011.1
20260903031240 75 154 0.0 0.0 0.00 0.19 0.19 91 1011.1
20260903031227 75 152 0.0 0.0 0.00 0.19 0.19 91 1011.1
20260903031039 75 152 0.0 0.0 0.00 0.19 0.19 92 1011.1
20260903030832 75 152 0.0 0.0 0.00 0.19 0.19 92 1011.1
20260903030744 75 152 0.0 0.0 0.00 0.19 0.19 92 1011.2
20260903030727 75 152 0.0 0.0 0.00 0.19 0.19 92 1011.1
20260903030431 75 152 0.0 0.0 0.00 0.19 0.19 91 1011.1
20260903030337 75 152 0.0 0.0 0.00 0.19 0.19 91 1011.1
20260903030228 75 152 0.0 0.0 0.00 0.19 0.19 91 1011.1
20260903030031 75 152 0.0 0.0 0.00 0.19 0.19 91 1011.1
20260903025830 75 152 0.0 0.0 0.00 0.19 0.19 91 1011.1
20260903025730 75 151 0.0 0.0 0.00 0.19 0.19 91 1011.1
20260903025630 75 152 0.0 0.0 0.00 0.19 0.19 91 1011.1
20260903025430 75 152 0.0 0.0 0.00 0.19 0.19 91 1011.1
20260903025334 75 154 0.0 0.0 0.00 0.19 0.19 90 1011.1
20260903025231 75 154 0.0 0.0 0.00 0.19 0.19 90 1011.1
20260903025024 75 154 0.0 0.0 0.00 0.19 0.19 90 1011.0
20260903024922 75 154 0.0 0.0 0.00 0.19 0.19 90 1011.1
20260903024743 76 152 0.0 0.0 0.00 0.19 0.19 90 1011.1
20260903024728 76 151 0.0 0.0 0.00 0.19 0.19 90 1011.0
20260903024523 76 152 0.0 0.0 0.00 0.19 0.19 90 1011.1
20260903024228 0 151 0.0 0.0 0.00 0.19 0.19 1011.2
20260903024007 0 0.0 0.0 0.00 0.19 0.19
20260903023807 0 0.0 0.0 0.00 0.19 0.19
20260903023544 0 0.0 0.0 0.00 0.19 0.19
20260903023524 0 0.0 0.0 0.00 0.19 0.19
20260903023237 0 0.0 0.0 0.00 0.19 0.19
20260903023034 0 0.0 0.0 0.00 0.19 0.19
20260903022809 0 0.0 0.0 0.00 0.19 0.19 1010.9
20260903022707 0 0.0 0.0 0.00 0.19 0.19 1010.9
20260903022506 0 0.0 0.0 0.00 0.19 0.19 1010.9
20260903022320 77 151 0.0 0.0 0.00 0.19 0.19 89 1010.9
20260903022107 77 151 0.0 0.0 0.00 0.19 0.19 89 1010.9
20260903021851 77 151 0.0 0.0 0.00 0.19 0.19 89 1010.9
20260903021804 77 151 0.0 0.0 0.00 0.19 0.19 89 1011.0
20260903021757 77 151 0.0 0.0 0.00 0.19 0.19 89 1011.0
20260903021549 77 151 0.0 0.0 0.00 0.19 0.19 89 1011.1
20260903021302 77 154 0.0 0.0 0.00 0.19 0.19 89 1011.0
20260903021241 77 152 0.0 0.0 0.00 0.19 0.19 89 1011.0
20260903021037 77 154 0.0 0.0 0.00 0.19 0.19 89 1011.0
20260903020836 77 154 0.0 0.0 0.00 0.19 0.19 89 1011.0
20260903020747 77 152 0.0 0.0 0.00 0.19 0.19 88 1011.0
20260903020636 77 154 0.0 0.0 0.00 0.19 0.19 88 1011.0
20260903020537 77 154 0.0 0.0 0.00 0.19 0.19 88 1011.0
20260903020250 77 152 0.0 0.0 0.00 0.19 0.19 88 1010.9
20260903020236 77 152 0.0 0.0 0.00 0.19 0.19 88 1011.0
20260903020035 77 152 0.0 0.0 0.00 0.19 0.19 88 1011.0
20260903015835 77 152 0.0 0.0 0.00 0.19 0.19 88 1010.9
20260903015802 77 152 0.0 0.0 0.00 0.19 0.19 88 1010.9
20260903015735 77 151 0.0 0.0 0.00 0.19 0.19 87 1010.9
20260903015434 77 152 0.0 0.0 0.00 0.19 0.19 87 1011.0
20260903015250 77 151 0.0 0.0 0.00 0.19 0.19 87 1010.9
20260903015233 77 154 0.0 0.0 0.00 0.19 0.19 87 1010.9
20260903015130 78 152 0.0 0.0 0.00 0.19 0.19 87 1010.9
20260903014831 78 152 0.0 0.0 0.00 0.19 0.19 87 1010.9
20260903014747 78 154 0.0 0.0 0.00 0.19 0.19 87 1010.9
20260903014631 78 154 0.0 0.0 0.00 0.19 0.19 87 1010.9
20260903014430 78 152 0.0 0.0 0.00 0.19 0.19 87 1010.9
20260903014328 78 152 0.0 0.0 0.00 0.19 0.19 87 1010.9
20260903014249 78 152 0.0 0.0 0.00 0.19 0.19 87 1010.9
20260903014029 78 152 0.0 0.0 0.00 0.19 0.19 87 1010.9
20260903013830 78 152 0.0 0.0 0.00 0.19 0.19 87 1010.9
20260903013749 78 152 0.0 0.0 0.00 0.19 0.19 87 1010.9
20260903013729 78 151 0.0 0.0 0.00 0.19 0.19 87 1010.9
20260903013432 78 152 0.0 0.0 0.00 0.19 0.19 87 1010.8
20260903013253 78 152 0.0 0.0 0.00 0.19 0.19 87 1010.9
20260903013229 78 154 0.0 0.0 0.00 0.19 0.19 87 1010.9
20260903013022 79 152 0.0 0.0 0.00 0.19 0.19 87 1010.8
20260903012919 79 152 0.0 0.0 0.00 0.19 0.19 87 1010.7
20260903012743 79 154 0.0 0.0 0.00 0.19 0.19 87 1010.7
20260903012619 79 152 0.0 0.0 0.00 0.19 0.19 87 1010.7
20260903012419 79 154 0.0 0.0 0.00 0.19 0.19 86 1010.7
20260903012255 79 154 0.0 0.0 0.00 0.19 0.19 86 1010.6
20260903012218 79 154 0.0 0.0 0.00 0.19 0.19 86 1010.6
20260903012119 79 154 0.0 0.0 0.00 0.19 0.19 86 1010.6
20260903011819 79 154 0.0 0.0 0.00 0.19 0.19 87 1010.6
20260903011745 79 152 0.0 0.0 0.00 0.19 0.19 87 1010.7
20260903011615 80 152 0.0 0.0 0.00 0.19 0.19 87 1010.7
20260903011511 80 154 0.0 0.0 0.00 0.19 0.19 87 1010.7
20260903011214 80 151 0.0 0.0 0.00 0.19 0.19 86 1010.8
20260903011058 80 152 0.0 0.0 0.00 0.19 0.19 84 1010.6
20260903011045 80 154 0.0 0.0 0.00 0.19 0.19 85 1010.7
20260903011006 80 154 0.0 0.0 0.00 0.19 0.19 84 1010.6
20260903010711 80 154 0.0 0.0 0.00 0.19 0.19 84 1010.5
20260903010412 80 152 0.0 0.0 0.00 0.19 0.19 84 1010.4
20260903010251 80 151 0.0 0.0 0.00 0.19 0.19 83 1010.3
20260903010214 80 154 0.0 0.0 0.00 0.19 0.19 83 1010.3
20260903010115 80 152 0.0 0.0 0.00 0.19 0.19 83 1010.4
20260903005811 80 152 0.0 0.0 0.00 0.19 0.19 83 1010.3
20260903005738 80 152 0.0 0.0 0.00 0.19 0.19 83 1010.4
20260903005610 80 152 0.0 0.0 0.00 0.19 0.19 83 1010.3
20260903005410 80 152 0.0 0.0 0.00 0.19 0.19 83 1010.3
20260903005311 80 152 0.0 0.0 0.00 0.19 0.19 82 1010.5
20260903005239 80 152 0.0 0.0 0.00 0.19 0.19 82 1010.5
20260903005009 81 152 0.0 0.0 0.00 0.19 0.19 82 1010.4
20260903004809 81 152 0.0 0.0 0.00 0.19 0.19 82 1010.4
20260903004740 81 152 0.0 0.0 0.00 0.19 0.19 82 1010.4
20260903004706 81 152 0.0 0.0 0.00 0.19 0.19 82 1010.4
20260903004404 81 154 0.0 0.0 0.00 0.19 0.19 82 1010.3
20260903004237 81 152 0.0 0.0 0.00 0.19 0.19 82 1010.3
20260903004205 81 152 0.0 0.0 0.00 0.19 0.19 82 1010.3
20260903004103 81 152 0.0 0.0 0.00 0.19 0.19 81 1010.4
20260903003901 81 152 0.0 0.0 0.00 0.19 0.19 80 1010.4
20260903003736 81 152 0.0 0.0 0.00 0.19 0.19 80 1010.4
20260903003604 81 152 0.0 0.0 0.00 0.19 0.19 79 1010.4
20260903003403 81 152 0.0 0.0 0.00 0.19 0.19 79 1010.4
20260903003237 82 152 0.0 0.0 0.00 0.19 0.19 79 1010.4
20260903003200 82 154 0.0 0.0 0.00 0.19 0.19 78 1010.4
20260903002959 82 152 0.0 0.0 0.00 0.19 0.19 78 1010.4
20260903002758 82 152 0.0 0.0 0.00 0.19 0.19 77 1010.5
20260903002736 82 154 0.0 0.0 0.00 0.19 0.19 77 1010.4
20260903002654 82 152 0.0 0.0 0.00 0.19 0.19 77 1010.5
20260903002458 82 152 0.0 0.0 0.00 0.19 0.19 76 1010.5
20260903002234 83 152 0.0 0.0 0.00 0.19 0.19 76 1010.5
20260903002159 83 154 0.0 0.0 0.00 0.19 0.19 76 1010.5
20260903001957 83 152 0.0 0.0 0.00 0.19 0.19 76 1010.4
20260903001757 83 152 0.0 0.0 0.00 0.19 0.19 75 1010.4
20260903001735 83 152 0.0 0.0 0.00 0.19 0.19 75 1010.5
20260903001553 83 152 0.0 0.0 0.00 0.19 0.19 74 1010.4
20260903001354 84 152 0.0 0.0 0.00 0.19 0.19 74 1010.4
20260903001251 84 151 0.0 0.0 0.00 0.19 0.19 74 1010.4
20260903001233 84 152 0.0 0.0 0.00 0.19 0.19 74 1010.4
20260903001052 84 152 0.0 0.0 0.00 0.19 0.19 73 1010.5
20260903000753 85 152 0.0 0.0 0.00 0.19 0.19 72 1010.5
20260903000732 85 152 0.0 0.0 0.00 0.19 0.19 72 1010.4
20260903000551 85 154 0.0 0.0 0.00 0.19 0.19 71 1010.4
20260903000355 85 152 0.0 0.0 0.00 0.19 0.19 71 1010.5
20260903000233 85 154 0.0 0.0 0.00 0.19 0.19 70 1010.5
20260903000151 85 152 0.0 0.0 0.00 0.19 0.19 71 1010.5
20260902235950 86 152 0.0 1.0 0.00 0.19 0.19 71 1010.5
20260902235749 86 154 0.0 2.0 0.00 0.19 0.19 70 1010.6
20260902235730 86 154 0.0 2.0 0.00 0.19 0.19 69 1010.5
20260902235648 86 152 0.0 2.0 0.00 0.19 0.19 69 1010.5
20260902235442 86 152 0.0 2.0 0.00 0.19 0.19 69 1010.5
20260902235231 86 151 0.0 2.0 0.00 0.19 0.19 69 1010.5
20260902235145 86 152 0.0 2.0 0.00 0.19 0.19 69 1010.5
20260902234949 87 152 0.0 2.0 0.00 0.19 0.19 68 1010.4
20260902234732 87 152 0.0 2.0 0.00 0.19 0.19 69 1010.5
20260902234547 87 152 0.0 2.0 0.00 0.19 0.19 69 1010.5
20260902234339 87 152 0.0 2.0 0.00 0.19 0.19 70 1010.6
20260902234238 87 152 0.0 2.0 0.00 0.19 0.19 70 1010.6
20260902234233 87 154 0.0 2.0 0.00 0.19 0.19 71 1010.5
20260902234032 87 152 0.0 2.0 0.00 0.19 0.19 68 1010.5
20260902233736 87 154 0.0 2.0 0.00 0.19 0.19 67 1010.5
20260902233730 87 151 0.0 2.0 0.00 0.19 0.19 67 1010.5
20260902233532 88 152 0.0 2.0 0.00 0.19 0.19 66 1010.5
20260902233331 88 151 0.0 2.0 0.00 0.19 0.19 67 1010.5
20260902233230 88 151 0.0 2.0 0.00 0.19 0.19 68 1010.6
20260902233131 88 151 0.0 2.0 0.00 0.19 0.19 68 1010.5
20260902232932 88 152 0.0 3.0 0.00 0.19 0.19 65 1010.6
20260902232831 88 152 0.0 3.0 0.00 0.19 0.19 66 1010.5
20260902232729 88 152 0.0 3.0 0.00 0.19 0.19 66 1010.5
20260902232530 88 154 0.0 3.0 0.00 0.19 0.19 65 1010.6
20260902232331 88 151 0.0 3.0 0.00 0.19 0.19 67 1010.6
20260902232241 88 152 0.0 3.0 0.00 0.19 0.19 67 1010.6
20260902232129 88 154 0.0 3.0 0.00 0.19 0.19 68 1010.6
20260902231928 88 135 0.0 2.0 0.00 0.19 0.19 67 1010.5
20260902231730 88 133 0.0 2.0 0.00 0.19 0.19 64 1010.6
20260902231533 88 134 0.0 2.0 0.00 0.19 0.19 63 1010.6
20260902231526 89 134 0.0 2.0 0.00 0.19 0.19 64 1010.6
20260902231226 89 134 0.0 2.0 0.00 0.19 0.19 63 1010.6
20260902231129 89 133 0.0 2.0 0.00 0.19 0.19 64 1010.6
20260902230923 89 130 0.0 2.0 0.00 0.19 0.19 64 1010.6
20260902230728 89 130 0.0 2.0 0.00 0.19 0.19 63 1010.6
20260902230721 89 131 0.0 2.0 0.00 0.19 0.19 63 1010.6
20260902230520 88 131 0.0 2.0 0.00 0.19 0.19 66 1010.6
20260902230319 88 130 0.0 2.0 0.00 0.19 0.19 65 1010.6
20260902230225 88 128 0.0 2.0 0.00 0.19 0.19 66 1010.6
20260902230119 88 128 0.0 2.0 0.00 0.19 0.19 66 1010.6
20260902230111 87 128 0.0 2.0 0.00 0.19 0.19 65 1010.6
20260902225712 87 130 0.0 3.0 0.00 0.19 0.19 66 1010.7
20260902225516 87 128 0.0 3.0 0.00 0.19 0.19 66 1010.6
20260902225317 87 127 0.0 3.0 0.00 0.19 0.19 66 1010.7
20260902225214 87 130 0.0 3.0 0.00 0.19 0.19 67 1010.6
20260902225116 87 128 0.0 3.0 0.00 0.19 0.19 68 1010.7
20260902224914 87 128 0.0 3.0 0.00 0.19 0.19 67 1010.6
20260902224711 87 130 0.0 2.0 0.00 0.19 0.19 68 1010.6
20260902224513 87 130 0.0 2.0 0.00 0.19 0.19 67 1010.6
20260902224414 87 182 0.0 2.0 0.00 0.19 0.19 68 1010.6
20260902224214 87 190 0.0 2.0 0.00 0.19 0.19 68 1010.5
20260902224210 87 179 0.0 2.0 0.00 0.19 0.19 68 1010.5
20260902223911 87 190 0.0 2.0 0.00 0.19 0.19 70 1010.6
20260902223715 87 190 0.0 1.0 0.00 0.19 0.19 68 1010.5
20260902223709 87 193 0.0 1.0 0.00 0.19 0.19 68 1010.5
20260902223512 87 193 0.0 0.0 0.00 0.19 0.19 68 1010.6
20260902223313 87 193 0.0 3.0 0.00 0.19 0.19 68 1010.7
20260902223207 87 192 0.0 4.0 0.00 0.19 0.19 67 1010.7
20260902223117 87 193 0.0 4.0 0.00 0.19 0.19 69 1010.7
20260902223112 87 192 0.0 4.0 0.00 0.19 0.19 68 1010.6
20260902222959 87 193 0.0 4.0 0.00 0.19 0.19 69 1010.7
20260902222945 87 193 0.0 4.0 0.00 0.19 0.19 68 1010.7
20260902222506 87 193 0.0 4.0 0.00 0.19 0.19 65 1010.7